This demonstration page uses our WeatherBlox Daily Observations layout. Learn more.

Left ArrowRight Arrow

36.19886, -115.1175

Hourly Observations for June 3, 2021

Temp ( °F °C ) Dew Point ( °F °C ) Humidity (%) Winds ( mph kmh ) Pressure ( in mb ) Visibility ( mi km ) Precip ( " mm )
12:53 am 00:53 Clear 87 30.6 35 1.7 16 16 WNW 6 9 29.63 1004 10 16 N/A
1:53 am 01:53 Clear 86 30 35 1.7 16 16 W 6 9 29.64 1004 10 16 N/A
2:53 am 02:53 Clear 83 28.3 33 0.6 17 17 NW 7 11 29.66 1004 10 16 N/A
3:53 am 03:53 Clear 83 28.3 34 1.1 17 17 NNW 7 11 29.67 1005 10 16 N/A
4:53 am 04:53 Clear 83 28.3 36 2.2 19 19 N 8 13 29.68 1005 10 16 N/A
5:53 am 05:53 Sunny 83 28.3 38 3.3 20 20 NNE 10 17 29.70 1006 10 16 N/A
6:53 am 06:53 Sunny 86 30 39 3.9 19 19 NNE 8 13 29.73 1007 10 16 N/A
7:53 am 07:53 Sunny 89 31.7 39 3.9 17 17 NE 3 6 29.75 1007 10 16 N/A
8:53 am 08:53 Sunny 91 32.8 36 2.2 14 14 SE 8 13 29.75 1008 10 16 N/A
9:53 am 09:53 Sunny 94 34.4 36 2.2 13 13 ESE 7 11 29.75 1008 10 16 N/A
10:53 am 10:53 Sunny 96 35.6 36 2.2 12 12 SE 9 15 29.75 1008 10 16 N/A
11:53 am 11:53 Sunny 99 37.2 36 2.2 11 11 E 5 7 29.74 1007 10 16 N/A
12:53 pm 12:53 Sunny 102 38.9 35 1.7 10 10 VRB 3 6 29.73 1007 10 16 N/A
1:53 pm 13:53 Sunny 104 40 35 1.7 9 9 E 10 17 29.69 1005 10 16 N/A
2:53 pm 14:53 Sunny 107 41.7 33 0.6 8 8 SSE 10 17 29.66 1004 10 16 N/A
3:53 pm 15:53 Sunny 108 42.2 33 0.6 7 7 SE 14 22 29.63 1003 10 16 N/A
4:53 pm 16:53 Sunny 108 42.2 32 undefined 7 7 SSE 10 17 29.62 1003 10 16 N/A
5:53 pm 17:53 Sunny 108 42.2 31 -0.6 7 7 S 9 15 29.60 1003 10 16 N/A
6:53 pm 18:53 Sunny 107 41.7 30 -1.1 7 7 SW 8 13 29.60 1002 10 16 N/A
7:53 pm 19:53 Sunny 105 40.6 30 -1.1 7 7 W 12 19 29.61 1003 10 16 N/A
8:53 pm 20:53 Clear 101 38.3 31 -0.6 8 8 SW 6 9 29.63 1003 10 16 N/A
9:53 pm 21:53 Clear 99 37.2 32 undefined 9 9 SSW 6 9 29.64 1004 10 16 N/A
10:53 pm 22:53 Clear 98 36.7 32 undefined 10 10 SSW 9 15 29.66 1004 10 16 N/A
11:53 pm 23:53 Clear 94 34.4 33 0.6 12 12 SSE 7 11 29.67 1005 10 16 N/A

Powered by AerisWeather